Namest Nad Oslav, Czech Republic

5:24 AM CEST on April 25, 2018 (GMT +0200)
Namest

Weather History for LKNA - August, 2013

Change the Weather History Date:

Thursday, August 29, 2013

  Actual Average Record
Temperature  
Mean Temperature 62 °F -  
Max Temperature 71 °F - - ()
Min Temperature 53 °F - - ()
Degree Days  
Heating Degree Days 3    
Growing Degree Days 12 (Base 50)    
Moisture  
Dew Point 52 °F    
Average Humidity 72    
Maximum Humidity 94    
Minimum Humidity 43    
Precipitation  
Precipitation 0.00 in - - ()
Sea Level Pressure  
Sea Level Pressure 30.13 in    
Wind  
Wind Speed 6 mph ()    
Max Wind Speed 10 mph    
Max Gust Speed -    
Visibility 6.2 miles    
Events Rain    
T = Trace of Precipitation, MM = Missing Value Source: Averaged Metar Reports

Daily Weather History Graph

Daily Weather History Graph

Search for Another Location

Airport or City:

Astronomy

Aug. 29, 2013 Rise Set
Actual Time 6:07 AM CEST 7:44 PM CEST
Civil Twilight 5:34 AM CEST 8:17 PM CEST
Nautical Twilight 4:53 AM CEST 8:58 PM CEST
Astronomical Twilight 4:08 AM CEST 9:42 PM CEST
Moon No Moon Rise 3:14 PM CEST (8/29)
Length of Visible Light 14h 43m
Length of Day
13h 36m
Last Quarter, 40% of the Moon is Illuminated
Aug 29
Last Quarter
Sep 5
New
Sep 12
First Quarter
Sep 19
Full
Sep 27
Last Quarter

Hourly Weather History & Observations

Time (CEST) Temp. Dew Point Humidity Pressure Visibility Wind Dir Wind Speed Gust Speed Precip Events Conditions
12:00 AM 59.0 °F 55.4 °F 88% 30.06 in 6.2 mi NNW 6.9 mph - N/A Rain Light Rain
1:00 AM 57.2 °F 55.4 °F 94% 30.09 in 6.2 mi NW 5.8 mph - N/A Rain Light Rain
2:00 AM 57.2 °F 55.4 °F 94% 30.09 in 6.2 mi NW 6.9 mph - N/A Rain Light Rain
3:00 AM 57.2 °F 55.4 °F 94% 30.09 in 6.2 mi NW 5.8 mph - N/A Rain Light Rain
4:00 AM 57.2 °F 53.6 °F 88% 30.09 in - NW 8.1 mph - N/A   Clear
5:00 AM 55.4 °F 51.8 °F 88% 30.09 in - NW 8.1 mph - N/A   Clear
6:00 AM 55.4 °F 51.8 °F 88% 30.12 in - NW 8.1 mph - N/A   Clear
7:00 AM 53.6 °F 51.8 °F 94% 30.12 in - NW 9.2 mph - N/A   Clear
8:00 AM 55.4 °F 51.8 °F 88% 30.15 in - NW 9.2 mph - N/A   Clear
9:00 AM 59.0 °F 53.6 °F 82% 30.15 in - NNW 6.9 mph - N/A   Clear
10:00 AM 62.6 °F 53.6 °F 72% 30.15 in - NNW 6.9 mph - N/A   Clear
11:00 AM 66.2 °F 53.6 °F 64% 30.15 in 6.2 mi NNW 8.1 mph - N/A   Partly Cloudy
12:00 PM 66.2 °F 51.8 °F 60% 30.15 in 6.2 mi NW 6.9 mph - N/A   Mostly Cloudy
1:00 PM 69.8 °F 51.8 °F 53% 30.15 in 6.2 mi NW 8.1 mph - N/A   Mostly Cloudy
2:00 PM 71.6 °F 48.2 °F 43% 30.15 in - North 10.4 mph - N/A   Clear
3:00 PM 68.0 °F 48.2 °F 49% 30.15 in - North 9.2 mph - N/A   Clear
4:00 PM 69.8 °F 50.0 °F 49% 30.12 in - NNW 10.4 mph - N/A   Clear
5:00 PM 68.0 °F 48.2 °F 49% 30.12 in - NNE 10.4 mph - N/A   Clear
6:00 PM 66.2 °F 51.8 °F 60% 30.15 in - North 5.8 mph - N/A   Clear
7:00 PM 66.2 °F 51.8 °F 60% 30.15 in - NNW 4.6 mph - N/A   Clear
8:00 PM 62.6 °F 51.8 °F 68% 30.15 in - NNW 3.5 mph - N/A   Clear
9:00 PM 60.8 °F 50.0 °F 68% 30.18 in - NW 5.8 mph - N/A   Clear
10:00 PM 59.0 °F 50.0 °F 72% 30.18 in - NNE 4.6 mph - N/A   Clear
11:00 PM 59.0 °F 50.0 °F 72% 30.18 in - Variable 2.3 mph - N/A   Clear